| time (UTC) | temp C | wind direction | speed KPH | gust KPH | rain 1hr cm | rain 24hr cm | rain mn cm | humidity % | barometer mb |
| 20260504110343 | 9 | 120 | 6.4 | 11.3 | 0.00 | 0.00 | 0.00 | 60 | 1005.2 |
| 20260504100317 | 8 | 147 | 4.8 | 11.3 | 0.00 | 0.00 | 0.00 | 68 | 1004.9 |
| 20260504081817 | 7 | 167 | 3.2 | 11.3 | 0.00 | 0.00 | 0.00 | 74 | 1005.4 |
| 20260504081330 | 7 | 158 | 3.2 | 8.0 | 0.00 | 0.00 | 0.00 | 74 | 1005.6 |
| 20260504080839 | 7 | 132 | 1.6 | 8.0 | 0.00 | 0.00 | 0.00 | 76 | 1005.6 |
| 20260504080313 | 7 | 149 | 3.2 | 8.0 | 0.00 | 0.00 | 0.00 | 75 | 1005.6 |
| 20260504070329 | 7 | 130 | 4.8 | 9.7 | 0.00 | 0.00 | 0.00 | 74 | 1005.8 |
| 20260504050348 | 7 | 136 | 1.6 | 8.0 | 0.00 | 0.00 | 0.00 | 69 | 1005.9 |
| 20260504045321 | 7 | 132 | 1.6 | 8.0 | 0.00 | 0.00 | 0.00 | 68 | 1006.2 |
| 20260504044833 | 7 | 89 | 3.2 | 8.0 | 0.00 | 0.00 | 0.00 | 67 | 1006.2 |
| 20260504044322 | 7 | 124 | 4.8 | 8.0 | 0.00 | 0.00 | 0.00 | 67 | 1006.3 |
| 20260504043822 | 7 | 143 | 1.6 | 6.4 | 0.00 | 0.00 | 0.00 | 64 | 1006.3 |
| 20260504043336 | 7 | 321 | 1.6 | 9.7 | 0.00 | 0.00 | 0.00 | 63 | 1006.3 |
| 20260504042824 | 7 | 32 | 3.2 | 9.7 | 0.00 | 0.00 | 0.00 | 61 | 1006.3 |
| 20260504042316 | 7 | 192 | 3.2 | 9.7 | 0.00 | 0.00 | 0.00 | 59 | 1006.3 |
| 20260504041844 | 7 | 99 | 3.2 | 8.0 | 0.00 | 0.00 | 0.00 | 58 | 1006.3 |
| 20260504041327 | 7 | 134 | 3.2 | 6.4 | 0.00 | 0.00 | 0.00 | 57 | 1006.2 |
| 20260504040839 | 7 | 165 | 1.6 | 6.4 | 0.00 | 0.00 | 0.00 | 55 | 1006.2 |
| 20260504040317 | 7 | 115 | 3.2 | 6.4 | 0.00 | 0.00 | 0.00 | 54 | 1006.2 |
| 20260504035836 | 7 | 123 | 3.2 | 6.4 | 0.00 | 0.00 | 0.00 | 53 | 1006.1 |
| 20260504035349 | 7 | 108 | 1.6 | 6.4 | 0.00 | 0.00 | 0.00 | 52 | 1006.1 |
| 20260504034825 | 7 | 112 | 1.6 | 6.4 | 0.00 | 0.00 | 0.00 | 52 | 1006.1 |
| 20260504034344 | 7 | 140 | 3.2 | 6.4 | 0.00 | 0.00 | 0.00 | 52 | 1006.0 |
| 20260504033820 | 7 | 123 | 1.6 | 4.8 | 0.00 | 0.00 | 0.00 | 50 | 1006.0 |
| 20260504033347 | 7 | 145 | 1.6 | 6.4 | 0.00 | 0.00 | 0.00 | 50 | 1006.0 |
| 20260504032824 | 8 | 147 | 3.2 | 6.4 | 0.00 | 0.00 | 0.00 | 50 | 1005.9 |
| 20260504032334 | 8 | 111 | 0.0 | 6.4 | 0.00 | 0.00 | 0.00 | 47 | 1005.9 |
| 20260504031813 | 8 | 87 | 3.2 | 6.4 | 0.00 | 0.00 | 0.00 | 49 | 1005.9 |
| 20260504031345 | 8 | 132 | 3.2 | 6.4 | 0.00 | 0.00 | 0.00 | 46 | 1005.9 |
| 20260504030858 | 8 | 152 | 3.2 | 4.8 | 0.00 | 0.00 | 0.00 | 47 | 1005.9 |
| 20260504030322 | 8 | 136 | 3.2 | 6.4 | 0.00 | 0.00 | 0.00 | 44 | 1005.9 |
| 20260504025814 | 8 | 121 | 1.6 | 6.4 | 0.00 | 0.00 | 0.00 | 45 | 1005.8 |
| 20260504025328 | 7 | 171 | 3.2 | 4.8 | 0.00 | 0.00 | 0.00 | 45 | 1005.8 |
| 20260504024830 | 7 | 101 | 3.2 | 4.8 | 0.00 | 0.00 | 0.00 | 49 | 1005.8 |
| 20260504024322 | 7 | 10 | 1.6 | 4.8 | 0.00 | 0.00 | 0.00 | 44 | 1005.8 |
| 20260504023830 | 7 | 119 | 3.2 | 4.8 | 0.00 | 0.00 | 0.00 | 46 | 1005.8 |
| 20260504023339 | 7 | 105 | 1.6 | 3.2 | 0.00 | 0.00 | 0.00 | 45 | 1005.8 |
| 20260504022825 | 7 | 105 | 1.6 | 3.2 | 0.00 | 0.00 | 0.00 | 47 | 1005.9 |
| 20260504022353 | 7 | 103 | 3.2 | 3.2 | 0.00 | 0.00 | 0.00 | 46 | 1005.9 |
| 20260504021836 | 7 | 119 | 1.6 | 3.2 | 0.00 | 0.00 | 0.00 | 44 | 1005.9 |
| 20260504021335 | 7 | 119 | 1.6 | 3.2 | 0.00 | 0.00 | 0.00 | 46 | 1006.1 |
| 20260504020832 | 7 | 119 | 1.6 | 4.8 | 0.00 | 0.00 | 0.00 | 47 | 1006.1 |
| 20260504020323 | 7 | 103 | 3.2 | 4.8 | 0.00 | 0.00 | 0.00 | 46 | 1006.1 |
| 20260504015824 | 7 | 103 | 3.2 | 4.8 | 0.00 | 0.00 | 0.00 | 49 | 1006.0 |
| 20260504015333 | 7 | 346 | 3.2 | 3.2 | 0.00 | 0.00 | 0.00 | 45 | 1006.0 |
| 20260504014813 | 7 | 346 | 1.6 | 3.2 | 0.00 | 0.00 | 0.00 | 45 | 1006.0 |
| 20260504014351 | 7 | 346 | 0.0 | 3.2 | 0.00 | 0.00 | 0.00 | 45 | 1005.9 |
| 20260504013903 | 7 | 346 | 1.6 | 3.2 | 0.00 | 0.00 | 0.00 | 43 | 1005.9 |
| 20260504013322 | 7 | 346 | 0.0 | 3.2 | 0.00 | 0.00 | 0.00 | 44 | 1005.9 |
| 20260504012817 | 7 | 346 | 1.6 | 3.2 | 0.00 | 0.00 | 0.00 | 47 | 1005.8 |
| 20260504012332 | 7 | 346 | 1.6 | 3.2 | 0.00 | 0.00 | 0.00 | 44 | 1005.8 |
| 20260504011828 | 7 | 346 | 1.6 | 3.2 | 0.00 | 0.00 | 0.00 | 43 | 1005.8 |
| 20260504011316 | 7 | 346 | 0.0 | 1.6 | 0.00 | 0.00 | 0.00 | 45 | 1005.7 |
| 20260504010830 | 7 | 346 | 1.6 | 3.2 | 0.00 | 0.00 | 0.00 | 43 | 1005.7 |
| 20260504010342 | 7 | 346 | 1.6 | 3.2 | 0.00 | 0.00 | 0.00 | 44 | 1005.7 |
| 20260504005834 | 7 | 346 | 3.2 | 8.0 | 0.00 | 0.00 | 0.00 | 44 | 1005.4 |
| 20260504005314 | 7 | 346 | 1.6 | 8.0 | 0.00 | 0.00 | 0.00 | 45 | 1005.4 |
| 20260504004825 | 7 | 329 | 1.6 | 4.8 | 0.00 | 0.00 | 0.00 | 46 | 1005.4 |
| 20260504004334 | 7 | 329 | 1.6 | 4.8 | 0.00 | 0.00 | 0.00 | 45 | 1005.2 |
| 20260504003819 | 7 | 310 | 0.0 | 1.6 | 0.00 | 0.00 | 0.00 | 49 | 1005.2 |
| 20260504003315 | 7 | 310 | 0.0 | 1.6 | 0.00 | 0.00 | 0.00 | 51 | 1005.2 |
| 20260504002834 | 7 | 310 | 0.0 | 3.2 | 0.00 | 0.00 | 0.00 | 48 | 1004.8 |
| 20260504002335 | 7 | 310 | 1.6 | 3.2 | 0.00 | 0.00 | 0.00 | 50 | 1004.8 |
| 20260504001820 | 7 | 310 | 1.6 | 3.2 | 0.00 | 0.00 | 0.00 | 49 | 1004.8 |
| 20260504001341 | 8 | 310 | 1.6 | 3.2 | 0.00 | 0.00 | 0.00 | 45 | 1004.6 |
| 20260504000840 | 8 | 310 | 1.6 | 1.6 | 0.00 | 0.00 | 0.00 | 45 | 1004.6 |
| 20260504000328 | 8 | 310 | 0.0 | 0.0 | 0.00 | 0.00 | 0.00 | 46 | 1004.6 |
| 20260503235822 | 9 | 310 | 0.0 | 0.0 | 0.00 | 0.00 | 0.00 | 45 | 1004.3 |
| 20260503235321 | 9 | 310 | 0.0 | 1.6 | 0.00 | 0.00 | 0.00 | 41 | 1004.3 |
| 20260503234816 | 10 | 310 | 0.0 | 1.6 | 0.00 | 0.00 | 0.00 | 40 | 1004.3 |
| 20260503234351 | 10 | 310 | 0.0 | 1.6 | 0.00 | 0.00 | 0.00 | 40 | 1004.2 |
| 20260503233837 | 10 | 310 | 0.0 | 1.6 | 0.00 | 0.00 | 0.00 | 40 | 1004.2 |
| 20260503233327 | 10 | 310 | 0.0 | 4.8 | 0.00 | 0.00 | 0.00 | 40 | 1004.2 |
| 20260503232816 | 10 | 310 | 0.0 | 4.8 | 0.00 | 0.00 | 0.00 | 39 | 1004.0 |
| 20260503232337 | 10 | 310 | 1.6 | 6.4 | 0.00 | 0.00 | 0.00 | 39 | 1004.0 |
| 20260503231814 | 10 | 292 | 3.2 | 6.4 | 0.00 | 0.00 | 0.00 | 39 | 1004.0 |
| 20260503231318 | 10 | 303 | 0.0 | 4.8 | 0.00 | 0.00 | 0.00 | 39 | 1004.0 |
| 20260503230830 | 11 | 257 | 1.6 | 11.3 | 0.00 | 0.00 | 0.00 | 39 | 1004.0 |
| 20260503230312 | 11 | 5 | 6.4 | 11.3 | 0.00 | 0.00 | 0.00 | 38 | 1004.0 |
| 20260503225834 | 11 | 327 | 4.8 | 9.7 | 0.00 | 0.00 | 0.00 | 37 | 1003.8 |
| 20260503225312 | 11 | 329 | 6.4 | 9.7 | 0.00 | 0.00 | 0.00 | 39 | 1003.8 |
| 20260503224822 | 11 | 325 | 4.8 | 11.3 | 0.00 | 0.00 | 0.00 | 37 | 1003.8 |
| 20260503224333 | 11 | 323 | 6.4 | 11.3 | 0.00 | 0.00 | 0.00 | 36 | 1003.9 |
| 20260503223821 | 11 | 258 | 1.6 | 12.9 | 0.00 | 0.00 | 0.00 | 38 | 1003.9 |
| 20260503223330 | 11 | 315 | 4.8 | 12.9 | 0.00 | 0.00 | 0.00 | 38 | 1003.9 |
| 20260503222841 | 11 | 292 | 3.2 | 14.5 | 0.00 | 0.00 | 0.00 | 38 | 1004.0 |
| 20260503222322 | 11 | 333 | 8.0 | 14.5 | 0.00 | 0.00 | 0.00 | 36 | 1004.0 |
| 20260503221831 | 11 | 292 | 4.8 | 11.3 | 0.00 | 0.00 | 0.00 | 37 | 1004.0 |
| 20260503221346 | 11 | 360 | 6.4 | 11.3 | 0.00 | 0.00 | 0.00 | 38 | 1004.0 |
| 20260503220835 | 11 | 325 | 526.3 | 16.1 | 0.00 | 0.00 | 0.00 | 38 | 1004.0 |
| 20260503220315 | -17 | 0.0 | 0.0 | 0.00 | 0.00 | 0.00 | 1004.0 | ||
| 20260503215818 | -17 | 0.0 | 0.0 | 0.00 | 0.00 | 0.00 | 1004.0 | ||
| 20260503215323 | -17 | 0.0 | 0.0 | 0.00 | 0.00 | 0.00 | 1004.0 | ||
| 20260503214331 | 12 | 319 | 9.7 | 22.5 | 0.00 | 0.00 | 0.00 | 37 | 1004.0 |
| 20260503213814 | 12 | 325 | 4.8 | 16.1 | 0.00 | 0.00 | 0.00 | 38 | 1004.0 |
| 20260503213314 | 12 | 281 | 6.4 | 16.1 | 0.00 | 0.00 | 0.00 | 38 | 1004.0 |
| 20260503212812 | 11 | 9 | 8.0 | 22.5 | 0.00 | 0.00 | 0.00 | 39 | 1004.2 |
| 20260503212327 | 12 | 304 | 14.5 | 22.5 | 0.00 | 0.00 | 0.00 | 36 | 1004.2 |
| 20260503211839 | 12 | 313 | 8.0 | 19.3 | 0.00 | 0.00 | 0.00 | 38 | 1004.2 |
| 20260503211346 | 12 | 327 | 11.3 | 19.3 | 0.00 | 0.00 | 0.00 | 39 | 1004.2 |
| 20260503210835 | 11 | 274 | 4.8 | 19.3 | 0.00 | 0.00 | 0.00 | 39 | 1004.2 |
| 20260503210359 | 11 | 333 | 8.0 | 19.3 | 0.00 | 0.00 | 0.00 | 41 | 1004.2 |
| 20260503205824 | 11 | 331 | 12.9 | 19.3 | 0.00 | 0.00 | 0.00 | 37 | 1004.2 |
| 20260503205323 | 11 | 319 | 9.7 | 17.7 | 0.00 | 0.00 | 0.00 | 40 | 1004.2 |
| 20260503204826 | 11 | 280 | 6.4 | 17.7 | 0.00 | 0.00 | 0.00 | 43 | 1004.2 |
| 20260503204318 | 11 | 278 | 8.0 | 17.7 | 0.00 | 0.00 | 0.00 | 41 | 1004.2 |
| 20260503203827 | 10 | 162 | 4.8 | 16.1 | 0.00 | 0.00 | 0.00 | 43 | 1004.2 |
| 20260503203354 | 10 | 345 | 6.4 | 19.3 | 0.00 | 0.00 | 0.00 | 42 | 1004.2 |
| 20260503202820 | 10 | 303 | 6.4 | 24.1 | 0.00 | 0.00 | 0.00 | 42 | 1004.3 |
| 20260503202321 | 11 | 310 | 9.7 | 24.1 | 0.00 | 0.00 | 0.00 | 43 | 1004.3 |
| 20260503201847 | 10 | 319 | 8.0 | 24.1 | 0.00 | 0.00 | 0.00 | 42 | 1004.3 |
| 20260503201315 | 10 | 342 | 11.3 | 14.5 | 0.00 | 0.00 | 0.00 | 42 | 1004.4 |
| 20260503200824 | 10 | 289 | 4.8 | 20.9 | 0.00 | 0.00 | 0.00 | 42 | 1004.4 |
| 20260503200333 | 10 | 321 | 11.3 | 20.9 | 0.00 | 0.00 | 0.00 | 42 | 1004.4 |
| 20260503195814 | 10 | 261 | 6.4 | 11.3 | 0.00 | 0.00 | 0.00 | 47 | 1004.6 |
| 20260503195329 | 10 | 12 | 3.2 | 9.7 | 0.00 | 0.00 | 0.00 | 44 | 1004.6 |
| 20260503194821 | 10 | 305 | 6.4 | 9.7 | 0.00 | 0.00 | 0.00 | 45 | 1004.6 |
| 20260503194326 | 10 | 286 | 6.4 | 19.3 | 0.00 | 0.00 | 0.00 | 43 | 1004.8 |
| 20260503193842 | 10 | 267 | 8.0 | 20.9 | 0.00 | 0.00 | 0.00 | 45 | 1004.8 |
| 20260503193325 | 10 | 324 | 11.3 | 20.9 | 0.00 | 0.00 | 0.00 | 42 | 1004.8 |
| 20260503192840 | 10 | 285 | 3.2 | 20.9 | 0.00 | 0.00 | 0.00 | 43 | 1004.9 |
| 20260503192330 | 10 | 293 | 8.0 | 20.9 | 0.00 | 0.00 | 0.00 | 43 | 1004.9 |
| 20260503191826 | 10 | 340 | 6.4 | 17.7 | 0.00 | 0.00 | 0.00 | 43 | 1004.9 |
| 20260503191344 | 10 | 25 | 8.0 | 16.1 | 0.00 | 0.00 | 0.00 | 46 | 1005.2 |
| 20260503190844 | 10 | 252 | 3.2 | 16.1 | 0.00 | 0.00 | 0.00 | 46 | 1005.2 |
| 20260503190333 | 9 | 277 | 3.2 | 16.1 | 0.00 | 0.00 | 0.00 | 48 | 1005.2 |
| 20260503185842 | 9 | 227 | 6.4 | 19.3 | 0.00 | 0.00 | 0.00 | 45 | 1005.3 |
| 20260503185336 | 9 | 269 | 12.9 | 19.3 | 0.00 | 0.00 | 0.00 | 43 | 1005.3 |
| 20260503184845 | 10 | 326 | 9.7 | 14.5 | 0.00 | 0.00 | 0.00 | 44 | 1005.3 |
| 20260503184315 | 10 | 317 | 6.4 | 20.9 | 0.00 | 0.00 | 0.00 | 49 | 1005.3 |
| 20260503183816 | 9 | 328 | 11.3 | 19.3 | 0.00 | 0.00 | 0.00 | 47 | 1005.3 |
| 20260503183313 | 9 | 294 | 8.0 | 22.5 | 0.00 | 0.00 | 0.00 | 46 | 1005.3 |
| 20260503182823 | 9 | 338 | 8.0 | 22.5 | 0.00 | 0.00 | 0.00 | 45 | 1005.3 |
| 20260503182332 | 9 | 325 | 8.0 | 17.7 | 0.00 | 0.00 | 0.00 | 46 | 1005.3 |
| 20260503181823 | 9 | 312 | 6.4 | 24.1 | 0.00 | 0.00 | 0.00 | 43 | 1005.3 |
| 20260503181314 | 9 | 309 | 12.9 | 24.1 | 0.00 | 0.00 | 0.00 | 44 | 1005.4 |
| 20260503180821 | 8 | 350 | 6.4 | 24.1 | 0.00 | 0.00 | 0.00 | 47 | 1005.4 |
| 20260503180333 | 8 | 13 | 11.3 | 24.1 | 0.00 | 0.00 | 0.00 | 45 | 1005.4 |
| 20260503175813 | 8 | 344 | 9.7 | 22.5 | 0.00 | 0.00 | 0.00 | 47 | 1005.5 |
| 20260503175401 | 8 | 321 | 12.9 | 22.5 | 0.00 | 0.00 | 0.00 | 44 | 1005.5 |
| 20260503174825 | 8 | 306 | 11.3 | 22.5 | 0.00 | 0.00 | 0.00 | 48 | 1005.5 |
| 20260503174331 | 8 | 312 | 9.7 | 17.7 | 0.00 | 0.00 | 0.00 | 46 | 1005.4 |
| 20260503173816 | -17 | 293 | 526.3 | 8.0 | 0.00 | 0.00 | 0.00 | 1005.4 | |
| 20260503173349 | -17 | 0.0 | 0.0 | 0.00 | 0.00 | 0.00 | 1005.4 | ||
| 20260503172834 | -17 | 0.0 | 0.0 | 0.00 | 0.00 | 0.00 | 1005.3 | ||
| 20260503172317 | -17 | 0.0 | 0.0 | 0.00 | 0.00 | 0.00 | 1005.3 | ||
| 20260503171823 | -17 | 0.0 | 0.0 | 0.00 | 0.00 | 0.00 | 1005.3 | ||
| 20260503171339 | -17 | 0.0 | 0.0 | 0.00 | 0.00 | 0.00 | 1005.3 | ||
| 20260503170813 | -17 | 0.0 | 0.0 | 0.00 | 0.00 | 0.00 | 1005.3 | ||
| 20260503170327 | 8 | 311 | 14.5 | 25.7 | 0.00 | 0.00 | 0.00 | 47 | 1005.3 |
| 20260503150843 | 7 | 315 | 11.3 | 22.5 | 0.00 | 0.33 | 0.00 | 54 | 1005.8 |
| 20260503150336 | 7 | 5 | 8.0 | 19.3 | 0.00 | 0.33 | 0.00 | 55 | 1005.8 |
| 20260503131320 | 7 | 346 | 6.4 | 9.7 | 0.00 | 0.33 | 0.00 | 71 | 1006.3 |
| 20260503130829 | 6 | 345 | 4.8 | 8.0 | 0.00 | 0.33 | 0.00 | 74 | 1006.3 |
| 20260503130402 | 6 | 323 | 4.8 | 11.3 | 0.00 | 0.33 | 0.00 | 74 | 1006.3 |